CW5574 Weather Reports


time (UTC)temp
C
wind
direction
speed
KPH
gust
KPH
rain 1hr
cm
rain 24hr
cm
rain mn
cm
humidity
%
barometer
mb
20260510115249 12 94 3.2 3.2 0.00 0.00 0.00 96 1013.2
20260510114744 12 286 3.2 11.3 0.00 0.00 0.00 96 1013.2
20260510114242 11 60 3.2 9.7 0.00 0.00 0.00 96 1013.0
20260510113737 11 33 3.2 9.7 0.00 0.00 0.00 96 1012.9
20260510113234 11 156 6.4 14.5 0.00 0.00 0.00 96 1012.9
20260510112725 11 289 3.2 6.4 0.00 0.00 0.00 97 1013.0
20260510112222 11 158 3.2 4.8 0.00 0.00 0.00 97 1012.8
20260510111717 11 127 3.2 4.8 0.00 0.00 0.00 97 1012.7
20260510111215 11 173 3.2 4.8 0.00 0.00 0.00 97 1013.0
20260510110714 11 142 3.2 6.4 0.00 0.00 0.00 98 1012.9
20260510110213 11 37 0.0 6.4 0.00 0.00 0.00 98 1012.9
20260510105712 11 121 1.6 4.8 0.00 0.00 0.00 98 1012.9
20260510105207 11 71 0.0 3.2 0.00 0.00 0.00 98 1012.9
20260510104704 11 2 1.6 6.4 0.00 0.00 0.00 98 1012.9
20260510104201 11 3 0.0 6.4 0.00 0.00 0.00 98 1012.7
20260510103658 11 118 1.6 6.4 0.00 0.00 0.00 98 1012.7
20260510103155 11 196 0.0 4.8 0.00 0.00 0.00 98 1012.7
20260510102654 11 60 1.6 3.2 0.00 0.00 0.00 98 1012.5
20260510102151 11 10 0.0 1.6 0.00 0.00 0.00 98 1012.3
20260510101648 11 141 1.6 3.2 0.00 0.00 0.00 98 1012.1
20260510101147 11 37 1.6 11.3 0.00 0.00 0.00 98 1012.0
20260510100642 11 92 3.2 9.7 0.00 0.00 0.00 98 1012.0
20260510100140 11 10 0.0 1.6 0.00 0.00 0.00 98 1012.0
20260510095635 11 29 0.0 3.2 0.00 0.00 0.00 98 1011.9
20260510095130 11 35 1.6 3.2 0.00 0.00 0.00 98 1011.8
20260510094624 11 16 1.6 4.8 0.00 0.00 0.00 98 1011.9
20260510094119 11 166 6.4 11.3 0.00 0.00 0.00 99 1011.8
20260510093616 11 18 1.6 1.6 0.00 0.00 0.00 99 1011.9
20260510093113 11 22 1.6 6.4 0.00 0.00 0.00 99 1011.8
20260510092610 11 184 6.4 9.7 0.00 0.00 0.00 99 1011.5
20260510092110 11 2 0.0 1.6 0.00 0.00 0.00 99 1011.7
20260510091606 11 310 3.2 6.4 0.00 0.00 0.00 99 1011.5
20260510091102 11 10 0.0 11.3 0.00 0.00 0.00 99 1011.4
20260510090559 11 89 0.0 6.4 0.00 0.00 0.00 99 1011.1
20260510090055 10 41 0.0 4.8 0.00 0.00 0.00 99 1011.3
20260510085550 10 11 0.0 1.6 0.00 0.00 0.00 99 1011.1
20260510085046 10 16 0.0 0.0 0.00 0.00 0.00 99 1011.2
20260510084543 10 213 4.8 6.4 0.00 0.00 0.00 99 1011.3
20260510084040 10 358 1.6 3.2 0.00 0.00 0.00 99 1011.5
20260510083536 11 57 1.6 3.2 0.00 0.00 0.00 99 1011.4
20260510083032 10 159 1.6 3.2 0.00 0.00 0.00 99 1011.8
20260510082530 10 21 0.0 1.6 0.00 0.00 0.00 99 1011.6
20260510082025 10 64 3.2 3.2 0.00 0.00 0.00 99 1011.3
20260510081520 10 81 3.2 3.2 0.00 0.00 0.00 99 1011.4
20260510081016 10 19 0.0 3.2 0.00 0.00 0.00 99 1011.4
20260510080515 10 13 0.0 1.6 0.00 0.00 0.00 99 1011.6
20260510080012 10 40 0.0 1.6 0.00 0.00 0.00 99 1011.7
20260510075510 10 31 0.0 1.6 0.00 0.00 0.00 99 1011.4
20260510075006 10 2 1.6 1.6 0.00 0.00 0.00 99 1011.4
20260510074504 10 78 1.6 9.7 0.00 0.00 0.00 99 1011.0
20260510073959 10 141 3.2 6.4 0.00 0.00 0.00 99 1011.4
20260510073455 10 47 1.6 9.7 0.00 0.00 0.00 99 1011.6
20260510072952 10 324 0.0 4.8 0.00 0.00 0.00 99 1011.9
20260510072449 10 158 4.8 4.8 0.00 0.00 0.00 99 1012.1
20260510071944 11 165 1.6 3.2 0.00 0.00 0.00 99 1012.1
20260510071441 10 73 3.2 6.4 0.00 0.00 0.00 99 1012.1
20260510070939 11 31 0.0 1.6 0.00 0.00 0.00 98 1012.3
20260510070436 11 136 3.2 3.2 0.00 0.00 0.00 98 1012.1
20260510065932 11 190 1.6 3.2 0.00 0.00 0.00 98 1012.2
20260510065429 11 65 1.6 1.6 0.00 0.00 0.00 98 1012.2
20260510064925 11 10 0.0 1.6 0.00 0.00 0.00 98 1012.5
20260510064423 11 12 0.0 11.3 0.00 0.00 0.00 98 1012.5
20260510063919 11 45 0.0 4.8 0.00 0.00 0.00 98 1012.3
20260510063415 11 143 3.2 4.8 0.00 0.00 0.00 98 1012.2
20260510062913 11 333 0.0 4.8 0.00 0.00 0.00 98 1012.2
20260510062408 11 8 0.0 3.2 0.00 0.00 0.00 98 1012.2
20260510061904 11 348 1.6 6.4 0.00 0.00 0.00 98 1012.1
20260510061401 11 8 0.0 0.0 0.00 0.00 0.00 98 1012.0
20260510060856 11 6 0.0 0.0 0.00 0.00 0.00 98 1011.9
20260510060354 11 358 0.0 0.0 0.00 0.00 0.00 98 1012.0
20260510055850 11 355 1.6 1.6 0.00 0.00 0.00 98 1011.7
20260510055349 11 60 3.2 4.8 0.00 0.00 0.00 98 1011.5
20260510054843 11 31 0.0 1.6 0.00 0.00 0.00 98 1011.6
20260510054338 11 47 1.6 4.8 0.00 0.00 0.00 98 1011.6
20260510053833 11 178 0.0 4.8 0.00 0.00 0.00 98 1011.7
20260510053329 11 34 0.0 0.0 0.00 0.00 0.00 98 1011.8
20260510052826 10 33 0.0 1.6 0.00 0.00 0.00 99 1011.9
20260510052321 10 38 0.0 1.6 0.00 0.00 0.00 99 1011.8
20260510051818 10 83 3.2 4.8 0.00 0.00 0.00 99 1011.6
20260510051315 10 45 1.6 1.6 0.00 0.00 0.00 99 1011.9
20260510050812 10 44 0.0 1.6 0.00 0.00 0.00 99 1011.6
20260510050309 10 51 1.6 3.2 0.00 0.00 0.00 99 1011.6
20260510045806 10 119 3.2 6.4 0.00 0.00 0.00 99 1011.7
20260510045305 10 9 0.0 1.6 0.00 0.00 0.00 99 1011.7
20260510044759 10 3 0.0 1.6 0.00 0.00 0.00 99 1011.7
20260510044256 10 6 0.0 0.0 0.00 0.00 0.00 99 1011.7
20260510043752 10 6 0.0 0.0 0.00 0.00 0.00 99 1011.8
20260510043243 10 5 0.0 0.0 0.00 0.00 0.00 99 1011.8
20260510042740 10 12 0.0 0.0 0.00 0.00 0.00 99 1011.9
20260510042230 10 11 0.0 0.0 0.00 0.00 0.00 99 1011.7
20260510041727 10 8 0.0 0.0 0.00 0.00 0.00 99 1011.6
20260510041224 10 32 0.0 0.0 0.00 0.00 0.00 99 1011.4
20260510040721 10 45 0.0 3.2 0.00 0.00 0.00 99 1011.5
20260510040218 10 16 0.0 0.0 0.00 0.00 0.00 99 1011.5
20260510035713 10 7 0.0 0.0 0.00 0.94 0.94 99 1011.5
20260510035210 10 5 0.0 0.0 0.00 0.94 0.94 99 1011.7
20260510034706 10 17 1.6 3.2 0.00 0.94 0.94 99 1011.9
20260510034203 10 351 0.0 0.0 0.00 0.94 0.94 99 1011.9
20260510033659 10 356 0.0 0.0 0.00 0.94 0.94 99 1011.7
20260510033157 10 9 0.0 3.2 0.00 0.94 0.94 99 1011.7
20260510032653 10 25 0.0 0.0 0.00 0.94 0.94 98 1011.6
20260510032149 10 25 0.0 0.0 0.00 0.94 0.94 98 1011.5
20260510031643 10 15 0.0 0.0 0.00 0.94 0.94 98 1011.4
20260510031140 10 34 0.0 0.0 0.00 0.94 0.94 97 1011.5
20260510030635 10 23 0.0 0.0 0.00 0.94 0.94 97 1011.5
20260510030133 11 20 0.0 0.0 0.00 0.94 0.94 97 1011.5
20260510025630 11 69 3.2 3.2 0.00 0.94 0.94 97 1011.4
20260510025127 11 44 1.6 9.7 0.00 0.94 0.94 97 1011.6
20260510024624 11 25 0.0 1.6 0.00 0.94 0.94 97 1011.6
20260510024120 11 50 1.6 3.2 0.00 0.94 0.94 96 1011.7
20260510023616 11 50 0.0 3.2 0.00 0.94 0.94 96 1011.7
20260510023113 11 51 1.6 1.6 0.00 0.94 0.94 96 1011.7
20260510022608 11 41 0.0 0.0 0.00 0.94 0.94 96 1011.6
20260510022102 11 41 1.6 3.2 0.00 0.94 0.94 96 1011.7
20260510021559 11 90 1.6 1.6 0.00 0.94 0.94 97 1011.8
20260510021056 11 41 1.6 3.2 0.00 0.94 0.94 97 1011.9
20260510020550 11 20 0.0 0.0 0.00 0.94 0.94 97 1011.7
20260510020046 11 19 0.0 0.0 0.00 0.94 0.94 97 1011.8
20260510015542 11 19 0.0 0.0 0.00 0.94 0.94 97 1011.8
20260510015038 11 14 0.0 0.0 0.00 0.94 0.94 97 1011.9
20260510014535 11 14 0.0 0.0 0.00 0.94 0.94 97 1011.9
20260510014032 11 11 0.0 0.0 0.00 0.94 0.94 97 1011.6
20260510013526 11 56 0.0 1.6 0.00 0.94 0.94 97 1011.5
20260510013022 11 32 0.0 0.0 0.00 0.94 0.94 96 1011.6
20260510012522 11 32 0.0 1.6 0.00 0.94 0.94 96 1011.7
20260510012019 11 30 0.0 0.0 0.00 0.94 0.94 96 1011.6
20260510011518 11 43 1.6 3.2 0.00 0.94 0.94 97 1011.5
20260510011014 11 13 0.0 0.0 0.00 0.94 0.94 97 1011.7
20260510010511 11 14 0.0 0.0 0.00 0.94 0.94 97 1011.7
20260510010008 11 14 0.0 0.0 0.00 0.94 0.94 97 1011.7
20260510005504 11 13 0.0 0.0 0.00 0.94 0.94 96 1011.7
20260510005001 11 12 0.0 0.0 0.00 0.94 0.94 96 1011.7
20260510004459 11 17 0.0 0.0 0.00 0.94 0.94 96 1011.5
20260510003957 12 27 0.0 0.0 0.00 0.94 0.94 95 1011.4
20260510003453 12 20 0.0 0.0 0.00 0.94 0.94 95 1011.5
20260510002948 12 35 0.0 0.0 0.00 0.94 0.94 95 1011.4
20260510002444 12 31 0.0 0.0 0.00 0.94 0.94 95 1011.2
20260510001941 12 36 0.0 0.0 0.00 0.94 0.94 96 1011.4
20260510001438 12 34 0.0 0.0 0.00 0.94 0.94 95 1011.0
20260510000936 12 79 1.6 3.2 0.00 0.94 0.94 95 1011.0
20260510000433 12 166 0.0 1.6 0.00 0.94 0.94 96 1010.8
20260509235929 12 34 0.0 1.6 0.00 0.94 0.94 96 1010.8
20260509235426 12 54 1.6 4.8 0.00 0.94 0.94 95 1010.5
20260509234922 12 18 0.0 6.4 0.00 0.94 0.94 95 1010.4
20260509234419 12 54 1.6 4.8 0.00 0.94 0.94 95 1010.6
20260509233917 12 1 0.0 1.6 0.00 0.94 0.94 95 1010.3
20260509233414 12 79 0.0 1.6 0.00 0.94 0.94 95 1010.4
20260509232910 12 226 1.6 3.2 0.00 0.94 0.94 95 1010.2
20260509232408 12 21 0.0 3.2 0.00 0.94 0.94 94 1010.4
20260509231903 12 29 1.6 6.4 0.00 0.94 0.94 94 1010.2
20260509231400 12 162 4.8 11.3 0.00 0.94 0.94 94 1010.1
20260509230859 12 258 1.6 4.8 0.00 0.94 0.94 94 1010.2
20260509230355 12 88 3.2 6.4 0.00 0.94 0.94 94 1010.1
20260509225851 12 146 3.2 12.9 0.00 0.94 0.94 93 1010.1
20260509225348 12 324 1.6 9.7 0.00 0.94 0.94 93 1010.1
20260509224843 12 191 4.8 6.4 0.00 0.94 0.94 94 1010.2
20260509224340 12 150 6.4 9.7 0.00 0.94 0.94 93 1010.2
20260509223837 12 63 1.6 1.6 0.00 0.94 0.94 94 1010.3
20260509223333 12 172 3.2 17.7 0.00 0.94 0.94 93 1010.3
20260509222830 13 58 1.6 9.7 0.00 0.94 0.94 94 1010.4
20260509222326 13 63 6.4 11.3 0.00 0.94 0.94 93 1010.3
20260509221821 12 166 3.2 4.8 0.00 0.94 0.94 94 1010.3
20260509221319 13 19 0.0 1.6 0.00 0.94 0.94 95 1010.3
20260509220814 12 166 3.2 4.8 0.00 0.94 0.94 95 1010.3
20260509220310 12 203 4.8 6.4 0.00 0.94 0.94 95 1010.5
20260509215806 12 180 8.0 11.3 0.00 0.94 0.94 95 1010.2
20260509215305 12 25 1.6 9.7 0.00 0.94 0.94 96 1010.4
20260509214800 12 155 3.2 4.8 0.00 0.94 0.94 96 1010.4
20260509214257 12 185 4.8 9.7 0.00 0.94 0.94 96 1010.5
20260509213754 12 138 3.2 11.3 0.00 0.94 0.94 97 1010.4
20260509213249 12 26 0.0 1.6 0.00 0.94 0.94 97 1010.6
20260509212747 12 225 4.8 6.4 0.00 0.94 0.94 97 1010.5
20260509212244 12 19 0.0 1.6 0.00 0.94 0.94 98 1010.8
20260509211745 12 32 0.0 0.0 0.00 0.94 0.94 98 1010.7
20260509211241 12 176 6.4 9.7 0.00 0.94 0.94 98 1010.7
20260509210738 12 19 0.0 3.2 0.00 0.94 0.94 98 1010.7
20260509210236 12 145 3.2 6.4 0.00 0.94 0.94 99 1010.7
20260509205735 12 52 1.6 6.4 0.00 0.94 0.94 99 1010.7
20260509205230 11 36 0.0 4.8 0.00 0.94 0.94 99 1010.9
20260509204726 11 25 0.0 0.0 0.00 0.94 0.94 99 1011.0
20260509204223 11 113 3.2 11.3 0.00 0.94 0.94 99 1011.2
20260509203719 11 11 0.0 3.2 0.00 0.94 0.94 99 1011.1
20260509203218 11 338 0.0 3.2 0.00 0.94 0.94 99 1011.1
20260509202713 11 161 8.0 11.3 0.00 0.94 0.94 99 1011.1
20260509202208 11 193 4.8 6.4 0.00 0.94 0.94 99 1011.2
20260509201703 11 345 0.0 4.8 0.00 0.94 0.94 99 1011.4
20260509201201 11 152 3.2 4.8 0.00 0.94 0.94 99 1011.4
20260509200656 11 91 3.2 11.3 0.00 0.94 0.94 99 1011.5
20260509200152 11 169 1.6 4.8 0.00 0.94 0.94 99 1011.5
20260509195648 11 30 0.0 3.2 0.00 0.94 0.94 99 1011.6
20260509195143 11 36 1.6 3.2 0.00 0.94 0.94 99 1011.9
20260509194642 11 219 4.8 6.4 0.00 0.94 0.94 99 1011.6
20260509194140 11 115 1.6 3.2 0.00 0.94 0.94 99 1011.8
20260509193635 11 160 6.4 6.4 0.00 0.94 0.94 99 1011.8
20260509193131 11 5 1.6 14.5 0.00 0.94 0.94 99 1011.8
20260509192628 10 17 3.2 6.4 0.00 0.94 0.94 99 1011.9
20260509192123 11 23 1.6 4.8 0.00 0.94 0.94 99 1011.9
20260509191617 10 24 0.0 4.8 0.00 0.94 0.94 99 1012.0
20260509191114 10 0 0.0 0.0 0.00 0.94 0.94 99 1012.0
20260509190611 10 18 0.0 0.0 0.18 0.94 0.94 99 1012.1
20260509190108 10 35 0.0 1.6 0.18 0.94 0.94 99 1012.3
20260509185606 10 29 0.0 0.0 0.00 0.91 0.91 99 1012.4
20260509185102 10 3 0.0 0.0 0.13 0.91 0.91 99 1012.4
20260509184600 10 19 0.0 0.0 0.00 0.89 0.89 99 1012.3
20260509184057 10 30 0.0 0.0 0.18 0.89 0.89 99 1012.4
20260509183552 10 41 1.6 3.2 0.18 0.89 0.89 99 1012.4
20260509183048 10 25 0.0 1.6 0.00 0.86 0.86 99 1012.2
20260509182544 10 12 0.0 0.0 0.00 0.86 0.86 99 1012.3
20260509182041 10 4 0.0 0.0 0.18 0.86 0.86 99 1012.3
20260509181540 10 25 0.0 1.6 0.18 0.86 0.86 99 1012.4
20260509181036 10 20 0.0 0.0 0.00 0.84 0.84 99 1012.4
20260509180532 10 26 0.0 1.6 0.00 0.84 0.84 99 1012.3
20260509180030 10 26 0.0 1.6 0.00 0.84 0.84 99 1012.3
20260509175525 10 66 3.2 4.8 0.00 0.84 0.84 99 1012.4
20260509175023 10 34 0.0 0.0 0.13 0.84 0.84 99 1012.4
20260509174519 10 69 1.6 4.8 0.13 0.84 0.84 99 1012.5
20260509174014 9 39 0.0 0.0 0.00 0.81 0.81 99 1012.7
20260509173508 9 69 1.6 3.2 0.00 0.81 0.81 99 1012.6
20260509173005 9 79 3.2 3.2 0.00 0.81 0.81 99 1012.6
20260509172503 9 355 0.0 0.0 0.18 0.81 0.81 99 1012.8
20260509171958 9 15 0.0 0.0 0.18 0.81 0.81 99 1012.6
20260509171454 9 26 0.0 1.6 0.00 0.79 0.79 99 1012.8
20260509170951 8 41 1.6 3.2 0.00 0.79 0.79 99 1013.0
20260509170446 8 137 4.8 4.8 0.00 0.79 0.79 99 1013.0
20260509165942 8 190 3.2 4.8 0.00 0.79 0.79 99 1013.0
20260509165441 8 65 3.2 3.2 0.00 0.79 0.79 99 1013.0
20260509164937 8 34 0.0 3.2 0.13 0.79 0.79 99 1012.9
20260509164433 8 59 3.2 4.8 0.13 0.79 0.79 99 1013.0
20260509163929 8 164 3.2 3.2 0.00 0.76 0.76 99 1013.1
20260509163427 8 155 4.8 4.8 0.00 0.76 0.76 99 1013.1
20260509162926 8 3 0.0 3.2 0.00 0.76 0.76 99 1013.0
20260509162425 8 50 1.6 4.8 0.18 0.76 0.76 99 1013.3
20260509161920 8 41 0.0 3.2 0.18 0.76 0.76 99 1013.6
20260509161417 8 23 0.0 1.6 0.00 0.74 0.74 99 1013.5
20260509160912 8 54 1.6 3.2 0.00 0.74 0.74 99 1013.9
20260509160408 8 36 0.0 3.2 0.13 0.74 0.74 99 1013.8
20260509155904 8 50 1.6 3.2 0.00 0.71 0.71 99 1013.8
20260509155401 8 55 1.6 3.2 0.18 0.71 0.71 99 1013.7
20260509154857 8 113 0.0 0.0 0.00 0.69 0.69 99 1014.0
20260509154354 8 41 0.0 3.2 0.00 0.69 0.69 99 1013.9
20260509153850 8 26 0.0 0.0 0.13 0.69 0.69 99 1013.9
20260509153348 8 4 0.0 1.6 0.13 0.69 0.69 99 1014.2
20260509152844 7 121 0.0 1.6 0.00 0.66 0.66 99 1014.2
20260509152340 7 43 1.6 3.2 0.00 0.66 0.66 99 1014.5
20260509151838 7 60 1.6 3.2 0.18 0.66 0.66 99 1014.4
20260509151334 7 20 0.0 1.6 0.18 0.66 0.66 99 1014.5
20260509150832 7 56 1.6 3.2 0.13 0.64 0.64 99 1014.5
20260509150330 7 352 1.6 4.8 0.13 0.64 0.64 99 1014.5
20260509145827 7 34 0.0 1.6 0.18 0.61 0.61 99 1014.5
20260509145321 7 27 0.0 3.2 0.18 0.61 0.61 99 1014.6
20260509144818 7 208 1.6 4.8 0.30 0.58 0.58 99 1014.5
20260509144315 7 54 1.6 1.6 0.18 0.56 0.56 99 1014.7
20260509143812 7 28 1.6 3.2 0.18 0.53 0.53 99 1014.6
20260509143310 7 32 0.0 1.6 0.30 0.53 0.53 99 1014.3
20260509142806 7 32 0.0 1.6 0.30 0.51 0.51 99 1014.4
20260509142306 7 35 0.0 0.0 0.13 0.46 0.46 99 1014.6
20260509141757 7 40 0.0 1.6 0.18 0.43 0.43 99 1014.4
20260509141255 7 35 0.0 0.0 0.48 0.43 0.43 99 1014.3
20260509140751 7 46 1.6 3.2 0.30 0.38 0.38 99 1014.5
20260509140248 6 31 0.0 0.0 0.30 0.36 0.36 99 1014.3
20260509135746 7 34 0.0 0.0 0.18 0.33 0.33 99 1014.2
20260509135244 7 33 0.0 0.0 0.13 0.30 0.30 99 1014.2
20260509134740 7 11 0.0 0.0 0.13 0.30 0.30 99 1014.5
20260509134238 7 7 0.0 0.0 0.18 0.28 0.28 99 1014.2
20260509133735 7 6 0.0 0.0 0.18 0.28 0.28 99 1014.4
20260509133231 7 5 0.0 0.0 0.13 0.25 0.25 99 1014.1
20260509132730 6 1 0.0 0.0 0.13 0.25 0.25 99 1014.2
20260509132229 6 0 0.0 1.6 0.00 0.23 0.23 99 1014.2
20260509131725 6 23 0.0 0.0 0.00 0.23 0.23 99 1014.3
20260509131221 6 13 0.0 0.0 0.00 0.23 0.23 99 1014.3
20260509130717 6 13 0.0 1.6 0.00 0.23 0.23 99 1014.2
20260509130213 6 8 0.0 0.0 0.00 0.23 0.23 99 1014.1
20260509125710 6 15 0.0 0.0 0.00 0.23 0.23 99 1014.2
20260509125207 6 36 0.0 0.0 0.00 0.23 0.23 99 1014.4
20260509124703 6 44 0.0 3.2 0.00 0.23 0.23 99 1014.3
20260509124200 6 64 1.6 3.2 0.18 0.23 0.23 99 1014.6
20260509123658 6 36 0.0 0.0 0.18 0.23 0.23 99 1014.4
20260509123155 6 32 0.0 0.0 0.00 0.20 0.20 99 1014.5
20260509122650 6 33 0.0 0.0 0.00 0.20 0.20 99 1014.7
20260509122148 6 48 0.0 1.6 0.18 0.20 0.20 99 1014.6
20260509121644 6 38 1.6 3.2 0.18 0.20 0.20 99 1014.6
20260509121142 6 11 0.0 1.6 0.13 0.18 0.18 99 1014.4
20260509120640 6 63 1.6 1.6 0.13 0.18 0.18 99 1014.7
20260509120138 6 32 0.0 0.0 0.18 0.15 0.15 99 1014.4